Flag for Germany Weather past 2 weeks in Friedrichshafen, Baden-Württemberg, Germany

Now
64 °F

Sprinkles. More clouds than sun.


Feels Like: 64 °F
Forecast: 58 / 74 °F
Wind: 8 mph from West

Location: Friedrichshafen Airport

Current Time: Jul 26, 2014 at 11:12:43 AM

Latest Report: Jul 26, 2014 at 10:50 AM


Visibility: 5 mi

Pressure: 29.95 "Hg

Humidity: 78%

Dew point: 57 °F

Location of FriedrichshafenLocation

Historic Weather in Friedrichshafen — Graph

°F

Friedrichshafen temperature yesterday

Maximum temperature yesterday: 82 °F (at 4:50 PM)
Minimum temperature yesterday: 52 °F (at 5:50 AM)
Average temperature yesterday: 67 °F

Past Weeks' High & Low Weather Summary

 TemperatureHumidityPressure
High91 °F (Jul 19, 4:50 PM)94% (Jul 11, 11:50 PM)30.21 "Hg (Jul 11, 11:50 PM)
Low52 °F (Jul 25, 5:50 AM)24% (Jul 19, 4:50 PM)29.83 "Hg (Jul 20, 2:20 AM)
Average67 °F67%30.00 "Hg
* Reported Jul 11 9:20 AM — Jul 26 9:50 AM, Friedrichshafen, Weather by CustomWeather, © 2014

Note: Actual official high and low records may vary slightly from our data, if they occured in-between our weather recording intervals... More about our weather records

Advertising

Friedrichshafen weather history for previous 24 hours

 ConditionsComfort  
Time TempWeatherWind HumidityBarometerVisibility
9:50 AM
Jul 26
66 °FMore clouds than sun.2 mph73%29.95 "HgN/A
9:20 AM64 °FSprinkles. Overcast.2 mph78%29.95 "HgN/A
8:50 AM64 °FSunny.1 mph73%29.95 "Hg10 mi
7:50 AM63 °FBroken clouds.2 mph77%29.92 "HgN/A
7:20 AM63 °FSunny.3 mph77%29.92 "Hg10 mi
6:50 AM61 °FClear.2 mph83%29.92 "Hg10 mi
6:20 AM61 °FClear.2 mph83%29.92 "Hg10 mi
5:50 AM63 °FClear.2 mph73%29.92 "Hg10 mi
5:20 AM61 °FPassing clouds.5 mph83%29.92 "HgN/A
4:50 AM63 °FClear.5 mph73%29.92 "Hg10 mi
4:20 AM63 °FClear.2 mph73%29.92 "Hg10 mi
3:50 AM63 °FPassing clouds.5 mph73%29.92 "HgN/A
3:20 AM63 °FClear.3 mph77%29.92 "Hg10 mi
2:50 AM64 °FPassing clouds.5 mph73%29.92 "HgN/A
2:20 AM64 °FOvercast.3 mph78%29.95 "HgN/A
1:50 AM64 °FSprinkles. Mostly cloudy.3 mph73%29.95 "HgN/A
1:20 AM68 °FClear.6 mph64%29.95 "Hg10 mi
12:50 AM66 °FPassing clouds.6 mph68%29.92 "HgN/A
12:20 AM66 °FClear.2 mph68%29.92 "Hg10 mi
11:50 PM
Jul 25
66 °FMild.2 mph64%29.92 "HgN/A
11:20 PM64 °FClear.3 mph64%29.92 "Hg10 mi
10:50 PM64 °FClear.3 mph68%29.92 "Hg10 mi
10:20 PM70 °FClear.3 mph53%29.92 "Hg10 mi
9:50 PM72 °FSunny.5 mph50%29.92 "Hg10 mi
9:20 PM72 °FSunny.2 mph53%29.89 "Hg10 mi
8:50 PM70 °FSunny.3 mph60%29.89 "Hg10 mi
8:20 PM70 °FSunny.No wind64%29.89 "Hg10 mi
7:50 PM73 °FSunny.2 mph53%29.89 "Hg10 mi
7:20 PM77 °FSunny.2 mph39%29.89 "Hg10 mi
6:50 PM77 °FSunny.2 mph47%29.86 "Hg10 mi
6:20 PM79 °FSunny.5 mph34%29.86 "Hg10 mi
5:50 PM81 °FSunny.2 mph30%29.86 "Hg10 mi
5:20 PM81 °FPassing clouds.2 mph32%29.89 "HgN/A
4:50 PM82 °FPassing clouds.2 mph28%29.89 "HgN/A
4:20 PM79 °FPassing clouds.3 mph30%29.89 "HgN/A
3:50 PM81 °FPassing clouds.3 mph32%29.92 "HgN/A
3:20 PM79 °FPassing clouds.2 mph30%29.92 "HgN/A
2:50 PM79 °FPassing clouds.3 mph32%29.92 "HgN/A
2:20 PM79 °FPassing clouds.2 mph32%29.92 "HgN/A
1:50 PM77 °FPassing clouds.3 mph39%29.92 "HgN/A
1:20 PM75 °FPassing clouds.6 mph47%29.95 "HgN/A
12:50 PM75 °FSunny.6 mph50%29.95 "Hg10 mi
12:20 PM75 °FSunny.3 mph50%29.95 "Hg10 mi
11:50 AM73 °FSunny.2 mph57%29.95 "Hg10 mi
11:20 AM72 °FSunny.3 mph57%29.98 "Hg10 mi
Weather by CustomWeather, © 2014

See weather overviewHow to use our weather pages